GLONASS-K 2 (40315 NORAD) Tracking and Keplerian Element Data

This shows tracking and keplerian element data for the satellite.

Feedback or suggestion? Click here.




ElementValue
Catalog40315
NameGLONASS-K 2
Epoch Orbit3087
Epoch Day322.61147068
Epoch Year2018
RAAN287.1007
Inclination64.147
Eccentricity0.0016888
Argument of Perigee212.4393
Mean Anonmoly146.1976
Mean Motion2.13098496
Decay Rate-1E-07
L11 40315U 14075A 18322.61147068 -.00000010 00000-0 00000-0 0 9991
L22 40315 64.1470 287.1007 0016888 212.4393 146.1976 2.13098496 30871

Live tracking and technical data element details for GLONASS-K 2 (NORAD 40315). GLONASS-K 2 can be tracked NOW for your location showing map with azimuth and elevation plus other details from your city location.

Track the satellite on the map from your city or location and see movement details for azimuth, elevation, latitude, longitude, range, height, and movement on the map or in text.







IsCatalogInMostPopularTable: catalog: 40315, numindb: 75
Update: records affected: 1



GetName: 40315 GLONASS-K 2

Hit Count: updated at: Wed, 21 Nov 2018 05:44:00 GMT